zhixing123.cn alexa rank chart, zhixing123.cn alexa rank daily changes

zhixing123.cn alexa rank chart, zhixing123.cn alexa rank daily changes

zhixing123.cn
Actual rank:
61 248

RANK HISTORY

Date Rank Diff
2017/10/18 61 248 -638
2017/10/17 61 886 -231
2017/10/16 62 117 +2 051
2017/10/14 60 066 -1 204
2017/10/13 61 270 +1 636
2017/10/12 59 634 +1 175
2017/10/11 58 459 +261
2017/10/10 58 198 -1 109
2017/10/09 59 307 +319
2017/10/08 58 988 -223
2017/10/07 59 211 -166
2017/10/06 59 377 -695
2017/10/05 60 072 +1 046
2017/10/04 59 026 -43
2017/10/03 59 069 +392
2017/10/02 58 677 -2 700
2017/10/01 61 377 -543
2017/09/30 61 920 +662
2017/09/29 61 258 -316
2017/09/28 61 574 +1 331
2017/09/27 60 243 +698
2017/09/26 59 545 -148
2017/09/25 59 693 -1 351
2017/09/24 61 044 +431
2017/09/23 60 613 -1 564
2017/09/22 62 177 +1 199
2017/09/20 60 978 -2 030
2017/09/19 63 008 -82
2017/09/18 63 090 -520
2017/09/17 63 610 +975
2017/09/16 62 635 -1 654
2017/09/15 64 289 -173
2017/09/14 64 462 +1 435
2017/09/13 63 027 -1 660
2017/09/12 64 687 -991
2017/09/11 65 678 -1 442
2017/09/10 67 120 +2 573
2017/09/09 64 547 +878
2017/09/08 63 669 +326
2017/09/07 63 343 +586
2017/09/06 62 757 -169
2017/09/05 62 926 -632
2017/09/04 63 558 -178
2017/09/03 63 736 +92
2017/09/02 63 644 +1 172
2017/09/01 62 472 +3 353
2017/08/31 59 119 -1 056
2017/08/30 60 175 +206
2017/08/29 59 969 +86
2017/08/28 59 883 -677
2017/08/27 60 560 +1 666
2017/08/26 58 894 +1 493
2017/08/25 57 401 +992
2017/08/24 56 409 +2 049
2017/08/23 54 360 +2 743
2017/08/22 51 617 +2 419
2017/08/21 49 198 +687
2017/08/20 48 511 +90
2017/08/19 48 421

WIDGET FOR YOUR SITE

DOMAINS WITH THE NEAREST RANK

Domain Rank
polskieinformacje.pl 61 243
gazette.com 61 244
conectate.com.do 61 245
rolloid.website 61 246
xy185.com 61 247
zhixing123.cn 61 248
tvguide.dk 61 249
zapmeta.cl 61 250
1klik.hr 61 251
wekeepcoding.com 61 252
4pda.to 61 253

DOMAINS WITH THE NEAREST RANK BY TLD .cn

Domain Rank
hwdr.cn 60 972
sceea.cn 61 001
speedfly.cn 61 048
owhat.cn 61 080
chinaname.cn 61 086
zhixing123.cn 61 248
thebigdata.cn 61 438
donglicgw.cn 61 506
pinyin.cn 61 514
yiyaows.cn 61 565
hellopower.cn 61 616